QPF
0.00 0.01 0.01 0.01 0.01 0.01 0.01 0.02 0.02 0.01 0.01 0.01 0.01 0.00 0.00 0.00 0.00 0.00 0.00 0.00 0.00 0.00 0.00 0.00 0.00 0.00 0.00 0.00 0.00 0.00 0.00 0.00 0.00 0.00 0.00 0.00 0.00 0.00 0.00 0.00 0.00 0.00 0.00 0.00
0.00 0.00 0.00 0.01 0.01 0.01 0.02 0.02 0.01 0.01 0.01 0.01 0.02 0.01 0.00 0.00 0.00 0.00 0.00 0.00 0.00 0.00 0.00 0.00 0.00 0.00 0.00 0.00 0.00 0.00 0.00 0.00 0.00 0.00 0.00 0.00 0.00 0.00 0.00 0.00 0.00 0.00 0.00 0.00
0.00 0.00 0.00 0.00 0.01 0.01 0.01 0.01 0.01 0.01 0.01 0.01 0.03 0.04 0.01 0.00 0.00 0.00 0.00 0.00 0.00 0.00 0.00 0.00 0.00 0.00 0.00 0.00 0.00 0.00 0.00 0.00 0.00 0.00 0.00 0.00 0.00 0.00 0.00 0.00 0.00 0.00 0.00 0.00
0.00 0.00 0.00 0.00 0.01 0.01 0.01 0.01 0.01 0.01 0.01 0.02 0.01 0.02 0.01 0.00 0.00 0.00 0.00 0.00 0.00 0.00 0.01 0.00 0.00 0.00 0.00 0.00 0.00 0.00 0.00 0.00 0.00 0.00 0.00 0.00 0.00 0.00 0.00 0.00 0.01 0.00 0.00 0.00
0.00 0.00 0.01 0.01 0.01 0.01 0.01 0.01 0.01 0.01 0.01 0.01 0.01 0.01 0.02 0.01 0.00 0.00 0.00 0.00 0.00 0.00 0.00 0.01 0.00 0.00 0.00 0.00 0.00 0.01 0.01 0.00 0.00 0.00 0.00 0.00 0.00 0.00 0.00 0.00 0.00 0.00 0.00 0.00
0.00 0.00 0.00 0.00 0.00 0.01 0.01 0.01 0.01 0.01 0.01 0.01 0.00 0.01 0.01 0.01 0.00 0.00 0.00 0.00 0.00 0.00 0.00 0.01 0.01 0.00 0.00 0.00 0.00 0.01 0.01 0.01 0.00 0.00 0.00 0.00 0.00 0.00 0.00 0.01 0.00 0.00 0.00 0.00
0.00 0.00 0.00 0.00 0.00 0.00 0.00 0.01 0.01 0.01 0.01 0.01 0.00 0.00 0.00 0.00 0.00 0.00 0.00 0.00 0.00 0.00 0.00 0.00 0.00 0.01 0.01 0.01 0.00 0.00 0.01 0.01 0.01 0.00 0.00 0.00 0.00 0.00 0.01 0.01 0.00 0.01 0.00 0.00
0.00 0.00 0.00 0.00 0.00 0.00 0.00 0.00 0.00 0.01 0.01 0.00 0.00 0.00 0.00 0.00 0.00 0.00 0.00 0.00 0.00 0.00 0.00 0.00 0.00 0.01 0.01 0.01 0.01 0.00 0.01 0.01 0.01 0.00 0.00 0.00 0.00 0.00 0.00 0.00 0.01 0.01 0.00 0.00
0.00 0.00 0.00 0.00 0.00 0.00 0.01 0.00 0.00 0.00 0.00 0.01 0.00 0.00 0.00 0.00 0.00 0.00 0.00 0.00 0.00 0.00 0.00 0.00 0.00 0.00 0.00 0.01 0.01 0.01 0.01 0.01 0.00 0.00 0.00 0.00 0.00 0.01 0.00 0.00 0.01 0.00 0.00 0.00
0.00 0.00 0.00 0.00 0.00 0.00 0.00 0.00 0.01 0.01 0.01 0.01 0.01 0.01 0.01 0.00 0.00 0.00 0.00 0.00 0.00 0.00 0.00 0.00 0.00 0.01 0.00 0.00 0.01 0.01 0.01 0.01 0.00 0.00 0.00 0.00 0.00 0.00 0.00 0.00 0.00 0.00 0.00 0.00
0.00 0.00 0.00 0.01 0.01 0.01 0.00 0.01 0.01 0.01 0.00 0.01 0.01 0.00 0.00 0.00 0.00 0.00 0.00 0.00 0.00 0.00 0.00 0.00 0.00 0.01 0.00 0.00 0.00 0.01 0.01 0.01 0.00 0.00 0.00 0.00 0.00 0.00 0.00 0.00 0.00 0.00 0.00 0.00
0.01 0.01 0.00 0.01 0.01 0.01 0.01 0.01 0.01 0.01 0.00 0.00 0.01 0.00 0.00 0.00 0.00 0.00 0.00 0.00 0.00 0.00 0.00 0.00 0.01 0.00 0.00 0.00 0.00 0.00 0.00 0.00 0.00 0.00 0.00 0.00 0.00 0.00 0.00 0.00 0.00 0.01 0.00 0.00
0.01 0.01 0.01 0.00 0.00 0.00 0.01 0.01 0.01 0.00 0.00 0.00 0.00 0.00 0.00 0.00 0.00 0.00 0.00 0.00 0.00 0.00 0.00 0.01 0.01 0.01 0.00 0.00 0.00 0.00 0.00 0.01 0.00 0.00 0.00 0.00 0.00 0.00 0.00 0.00 0.00 0.00 0.00 0.00
0.02 0.01 0.01 0.00 0.00 0.00 0.00 0.00 0.01 0.01 0.01 0.00 0.00 0.00 0.00 0.00 0.00 0.00 0.00 0.00 0.00 0.00 0.00 0.00 0.00 0.00 0.00 0.00 0.00 0.00 0.00 0.01 0.00 0.00 0.00 0.00 0.00 0.00 0.00 0.00 0.00 0.00 0.00 0.00
0.01 0.01 0.01 0.00 0.00 0.00 0.00 0.00 0.01 0.01 0.01 0.00 0.00 0.00 0.00 0.00 0.00 0.00 0.00 0.00 0.00 0.00 0.00 0.00 0.00 0.00 0.00 0.00 0.00 0.00 0.00 0.01 0.01 0.00 0.01 0.01 0.00 0.00 0.00 0.00 0.00 0.00 0.00 0.00
0.01 0.01 0.01 0.00 0.00 0.00 0.00 0.00 0.01 0.01 0.00 0.00 0.00 0.00 0.00 0.00 0.00 0.00 0.00 0.00 0.00 0.00 0.00 0.00 0.00 0.00 0.00 0.00 0.00 0.00 0.00 0.01 0.01 0.01 0.01 0.02 0.01 0.00 0.00 0.00 0.00 0.00 0.00 0.00
0.01 0.01 0.01 0.00 0.00 0.01 0.00 0.00 0.00 0.00 0.00 0.00 0.00 0.00 0.00 0.00 0.00 0.00 0.00 0.00 0.00 0.00 0.00 0.00 0.00 0.01 0.00 0.00 0.00 0.00 0.00 0.01 0.02 0.02 0.01 0.02 0.01 0.00 0.00 0.00 0.00 0.00 0.00 0.00
0.01 0.01 0.01 0.01 0.01 0.01 0.00 0.00 0.00 0.00 0.00 0.00 0.00 0.00 0.01 0.00 0.00 0.00 0.00 0.00 0.00 0.00 0.00 0.00 0.00 0.00 0.00 0.00 0.00 0.00 0.00 0.00 0.02 0.02 0.01 0.01 0.02 0.02 0.01 0.01 0.00 0.00 0.00 0.00
0.01 0.01 0.01 0.01 0.01 0.00 0.00 0.00 0.00 0.00 0.00 0.00 0.00 0.00 0.00 0.00 0.01 0.01 0.00 0.00 0.00 0.00 0.00 0.00 0.00 0.00 0.00 0.00 0.00 0.00 0.00 0.00 0.01 0.02 0.02 0.02 0.03 0.04 0.03 0.02 0.02 0.01 0.00 0.00
0.00 0.00 0.01 0.01 0.01 0.00 0.00 0.00 0.00 0.00 0.01 0.00 0.00 0.00 0.00 0.00 0.00 0.01 0.01 0.00 0.00 0.00 0.00 0.00 0.00 0.00 0.00 0.00 0.00 0.01 0.00 0.00 0.00 0.01 0.02 0.03 0.04 0.03 0.02 0.04 0.06 0.04 0.02 0.01
0.01 0.01 0.01 0.01 0.01 0.00 0.00 0.00 0.00 0.01 0.01 0.01 0.00 0.00 0.00 0.00 0.00 0.00 0.00 0.01 0.01 0.00 0.00 0.00 0.00 0.00 0.00 0.00 0.00 0.00 0.00 0.01 0.01 0.01 0.01 0.02 0.02 0.02 0.02 0.03 0.04 0.04 0.03 0.02
0.02 0.01 0.01 0.01 0.01 0.01 0.00 0.00 0.00 0.01 0.00 0.00 0.00 0.00 0.00 0.00 0.00 0.00 0.01 0.01 0.01 0.00 0.00 0.00 0.00 0.00 0.00 0.00 0.00 0.00 0.00 0.01 0.01 0.01 0.01 0.01 0.01 0.02 0.01 0.01 0.01 0.01 0.02 0.01
0.02 0.02 0.02 0.02 0.01 0.01 0.01 0.01 0.01 0.01 0.00 0.00 0.00 0.00 0.00 0.00 0.00 0.00 0.01 0.01 0.01 0.01 0.01 0.00 0.00 0.00 0.00 0.00 0.00 0.00 0.00 0.01 0.01 0.01 0.01 0.01 0.01 0.02 0.02 0.02 0.01 0.01 0.01 0.02
0.01 0.01 0.02 0.02 0.01 0.01 0.00 0.00 0.01 0.00 0.00 0.00 0.00 0.00 0.00 0.00 0.00 0.00 0.00 0.01 0.01 0.00 0.00 0.00 0.00 0.00 0.00 0.00 0.00 0.00 0.01 0.01 0.01 0.00 0.01 0.01 0.01 0.01 0.02 0.02 0.02 0.02 0.02 0.02
0.01 0.01 0.01 0.01 0.01 0.00 0.00 0.00 0.00 0.00 0.00 0.00 0.01 0.00 0.00 0.00 0.00 0.00 0.00 0.00 0.00 0.00 0.00 0.00 0.00 0.00 0.00 0.00 0.00 0.00 0.00 0.00 0.00 0.00 0.01 0.01 0.01 0.01 0.01 0.01 0.01 0.02 0.02 0.02
0.01 0.01 0.02 0.02 0.01 0.01 0.01 0.01 0.01 0.00 0.00 0.00 0.00 0.01 0.00 0.00 0.01 0.00 0.00 0.00 0.00 0.00 0.00 0.00 0.00 0.00 0.00 0.00 0.00 0.00 0.00 0.00 0.00 0.00 0.00 0.01 0.01 0.00 0.01 0.01 0.01 0.02 0.02 0.03
MSLP
1016.49 1016.91 1017.27 1017.58 1017.84 1018.08 1018.28 1018.44 1018.55 1018.57 1018.48 1018.29 1017.98 1017.61 1017.20 1016.83 1016.53 1016.36 1016.32 1016.40 1016.58 1016.80 1017.03 1017.21 1017.34 1017.39 1017.39 1017.37 1017.35 1017.36 1017.42 1017.51 1017.63 1017.75 1017.83 1017.87 1017.85 1017.77 1017.65 1017.50 1017.37 1017.25 1017.19 1017.17
1017.02 1017.34 1017.60 1017.81 1018.00 1018.18 1018.36 1018.52 1018.65 1018.69 1018.61 1018.41 1018.08 1017.64 1017.15 1016.67 1016.29 1016.04 1015.96 1016.05 1016.29 1016.61 1016.96 1017.28 1017.53 1017.69 1017.76 1017.77 1017.75 1017.74 1017.75 1017.80 1017.89 1017.99 1018.08 1018.13 1018.14 1018.08 1017.97 1017.83 1017.68 1017.56 1017.46 1017.43
1017.44 1017.65 1017.79 1017.90 1018.00 1018.13 1018.30 1018.48 1018.64 1018.72 1018.68 1018.48 1018.13 1017.64 1017.07 1016.51 1016.03 1015.71 1015.59 1015.68 1015.96 1016.36 1016.83 1017.27 1017.65 1017.91 1018.05 1018.09 1018.07 1018.03 1018.00 1018.01 1018.06 1018.15 1018.24 1018.31 1018.33 1018.31 1018.22 1018.10 1017.96 1017.82 1017.72 1017.67
1017.75 1017.83 1017.85 1017.86 1017.89 1017.99 1018.15 1018.36 1018.57 1018.70 1018.70 1018.53 1018.16 1017.63 1016.99 1016.34 1015.77 1015.37 1015.20 1015.28 1015.58 1016.05 1016.61 1017.17 1017.65 1018.01 1018.22 1018.30 1018.29 1018.23 1018.17 1018.14 1018.16 1018.22 1018.31 1018.40 1018.46 1018.47 1018.42 1018.32 1018.19 1018.07 1017.96 1017.91
1017.96 1017.92 1017.84 1017.76 1017.75 1017.82 1018.00 1018.25 1018.50 1018.69 1018.73 1018.58 1018.20 1017.63 1016.92 1016.18 1015.52 1015.03 1014.80 1014.85 1015.16 1015.67 1016.30 1016.96 1017.54 1017.98 1018.27 1018.39 1018.40 1018.33 1018.25 1018.19 1018.19 1018.25 1018.34 1018.45 1018.54 1018.59 1018.58 1018.51 1018.41 1018.30 1018.21 1018.15
1018.07 1017.95 1017.79 1017.67 1017.62 1017.70 1017.90 1018.20 1018.50 1018.74 1018.81 1018.67 1018.27 1017.65 1016.87 1016.04 1015.28 1014.71 1014.40 1014.41 1014.70 1015.24 1015.92 1016.65 1017.31 1017.84 1018.19 1018.37 1018.41 1018.36 1018.28 1018.21 1018.21 1018.26 1018.37 1018.50 1018.62 1018.71 1018.73 1018.70 1018.63 1018.54 1018.46 1018.40
1018.11 1017.94 1017.75 1017.61 1017.57 1017.67 1017.91 1018.25 1018.59 1018.86 1018.95 1018.79 1018.37 1017.70 1016.85 1015.93 1015.08 1014.42 1014.04 1013.99 1014.26 1014.79 1015.51 1016.28 1017.01 1017.60 1018.03 1018.27 1018.36 1018.34 1018.28 1018.23 1018.24 1018.30 1018.42 1018.58 1018.73 1018.84 1018.90 1018.90 1018.86 1018.78 1018.71 1018.66
1018.09 1017.91 1017.73 1017.61 1017.61 1017.75 1018.02 1018.39 1018.76 1019.03 1019.12 1018.94 1018.48 1017.76 1016.85 1015.86 1014.93 1014.20 1013.75 1013.64 1013.87 1014.38 1015.10 1015.90 1016.67 1017.32 1017.81 1018.12 1018.27 1018.30 1018.29 1018.27 1018.30 1018.39 1018.53 1018.70 1018.87 1019.01 1019.09 1019.11 1019.07 1019.01 1018.94 1018.89
1018.01 1017.86 1017.72 1017.65 1017.70 1017.89 1018.20 1018.58 1018.95 1019.21 1019.27 1019.06 1018.56 1017.80 1016.84 1015.81 1014.84 1014.05 1013.55 1013.39 1013.57 1014.06 1014.75 1015.55 1016.34 1017.04 1017.58 1017.95 1018.17 1018.27 1018.31 1018.34 1018.40 1018.52 1018.68 1018.86 1019.04 1019.18 1019.27 1019.30 1019.27 1019.21 1019.14 1019.10
1017.88 1017.78 1017.71 1017.70 1017.81 1018.04 1018.37 1018.75 1019.09 1019.32 1019.34 1019.09 1018.56 1017.77 1016.80 1015.76 1014.78 1013.97 1013.45 1013.26 1013.40 1013.84 1014.50 1015.28 1016.06 1016.78 1017.36 1017.78 1018.06 1018.23 1018.33 1018.42 1018.53 1018.68 1018.85 1019.04 1019.22 1019.36 1019.44 1019.46 1019.43 1019.37 1019.30 1019.25
1017.72 1017.68 1017.68 1017.74 1017.89 1018.14 1018.46 1018.81 1019.10 1019.27 1019.24 1018.96 1018.41 1017.63 1016.68 1015.68 1014.73 1013.96 1013.44 1013.24 1013.35 1013.74 1014.35 1015.08 1015.84 1016.54 1017.14 1017.60 1017.94 1018.17 1018.34 1018.49 1018.65 1018.82 1019.01 1019.21 1019.38 1019.50 1019.57 1019.58 1019.54 1019.48 1019.41 1019.38
1017.55 1017.57 1017.63 1017.73 1017.90 1018.14 1018.42 1018.71 1018.93 1019.02 1018.93 1018.61 1018.07 1017.32 1016.44 1015.52 1014.65 1013.94 1013.47 1013.28 1013.37 1013.72 1014.26 1014.93 1015.64 1016.31 1016.90 1017.38 1017.77 1018.06 1018.30 1018.51 1018.71 1018.92 1019.13 1019.33 1019.49 1019.61 1019.66 1019.67 1019.63 1019.57 1019.52 1019.50
1017.42 1017.49 1017.57 1017.69 1017.85 1018.04 1018.25 1018.43 1018.54 1018.54 1018.38 1018.04 1017.51 1016.83 1016.05 1015.24 1014.49 1013.88 1013.48 1013.31 1013.40 1013.70 1014.18 1014.77 1015.40 1016.02 1016.59 1017.09 1017.50 1017.85 1018.16 1018.43 1018.69 1018.94 1019.17 1019.38 1019.55 1019.67 1019.73 1019.73 1019.71 1019.67 1019.65 1019.66
1017.35 1017.44 1017.53 1017.63 1017.74 1017.84 1017.93 1017.99 1017.97 1017.86 1017.62 1017.25 1016.75 1016.14 1015.47 1014.80 1014.19 1013.71 1013.39 1013.26 1013.34 1013.60 1014.01 1014.52 1015.08 1015.64 1016.18 1016.67 1017.12 1017.52 1017.89 1018.23 1018.56 1018.86 1019.13 1019.37 1019.56 1019.69 1019.77 1019.81 1019.82 1019.82 1019.84 1019.89
1017.37 1017.46 1017.53 1017.57 1017.59 1017.57 1017.53 1017.42 1017.26 1017.02 1016.70 1016.30 1015.82 1015.29 1014.74 1014.20 1013.73 1013.37 1013.14 1013.06 1013.14 1013.36 1013.70 1014.13 1014.61 1015.11 1015.62 1016.12 1016.60 1017.05 1017.49 1017.91 1018.31 1018.68 1019.01 1019.30 1019.53 1019.70 1019.83 1019.91 1019.97 1020.03 1020.10 1020.20
1017.44 1017.52 1017.54 1017.51 1017.42 1017.27 1017.06 1016.79 1016.47 1016.10 1015.69 1015.25 1014.78 1014.31 1013.86 1013.45 1013.11 1012.85 1012.70 1012.66 1012.74 1012.92 1013.20 1013.56 1013.97 1014.43 1014.91 1015.42 1015.94 1016.46 1016.98 1017.48 1017.96 1018.41 1018.82 1019.17 1019.46 1019.70 1019.89 1020.04 1020.17 1020.29 1020.42 1020.58
1017.53 1017.57 1017.55 1017.43 1017.23 1016.93 1016.56 1016.13 1015.66 1015.16 1014.65 1014.16 1013.69 1013.27 1012.89 1012.58 1012.34 1012.17 1012.08 1012.07 1012.14 1012.30 1012.52 1012.82 1013.19 1013.61 1014.09 1014.61 1015.18 1015.77 1016.37 1016.97 1017.54 1018.08 1018.57 1018.99 1019.36 1019.67 1019.94 1020.16 1020.37 1020.57 1020.77 1020.97
1017.55 1017.56 1017.48 1017.28 1016.97 1016.55 1016.04 1015.46 1014.85 1014.24 1013.65 1013.10 1012.63 1012.22 1011.90 1011.65 1011.48 1011.37 1011.33 1011.34 1011.40 1011.53 1011.72 1011.97 1012.30 1012.71 1013.20 1013.75 1014.37 1015.03 1015.71 1016.40 1017.06 1017.69 1018.26 1018.77 1019.22 1019.61 1019.94 1020.25 1020.53 1020.80 1021.06 1021.32
1017.41 1017.39 1017.27 1017.00 1016.61 1016.09 1015.47 1014.79 1014.07 1013.37 1012.71 1012.13 1011.64 1011.25 1010.95 1010.75 1010.61 1010.54 1010.52 1010.54 1010.59 1010.70 1010.86 1011.09 1011.41 1011.81 1012.31 1012.90 1013.57 1014.29 1015.05 1015.81 1016.56 1017.26 1017.90 1018.48 1019.00 1019.45 1019.86 1020.24 1020.59 1020.92 1021.24 1021.53
1017.04 1017.01 1016.85 1016.54 1016.10 1015.52 1014.84 1014.09 1013.32 1012.57 1011.87 1011.27 1010.77 1010.38 1010.10 1009.92 1009.81 1009.76 1009.74 1009.76 1009.81 1009.90 1010.04 1010.26 1010.57 1010.98 1011.49 1012.11 1012.82 1013.59 1014.40 1015.22 1016.02 1016.78 1017.47 1018.11 1018.68 1019.19 1019.65 1020.09 1020.49 1020.88 1021.24 1021.57
1016.43 1016.38 1016.20 1015.88 1015.42 1014.83 1014.13 1013.37 1012.59 1011.83 1011.13 1010.53 1010.04 1009.66 1009.39 1009.22 1009.13 1009.08 1009.07 1009.08 1009.12 1009.20 1009.33 1009.54 1009.85 1010.25 1010.78 1011.41 1012.13 1012.93 1013.77 1014.62 1015.45 1016.23 1016.96 1017.63 1018.23 1018.78 1019.29 1019.76 1020.21 1020.64 1021.04 1021.42
1015.59 1015.52 1015.34 1015.03 1014.59 1014.03 1013.37 1012.64 1011.89 1011.17 1010.50 1009.93 1009.45 1009.10 1008.85 1008.68 1008.59 1008.54 1008.53 1008.54 1008.57 1008.64 1008.76 1008.96 1009.25 1009.65 1010.17 1010.79 1011.51 1012.31 1013.14 1013.99 1014.82 1015.61 1016.35 1017.03 1017.66 1018.23 1018.76 1019.27 1019.75 1020.22 1020.66 1021.08
1014.59 1014.52 1014.35 1014.07 1013.67 1013.17 1012.58 1011.92 1011.25 1010.59 1009.98 1009.45 1009.02 1008.68 1008.45 1008.29 1008.20 1008.15 1008.13 1008.12 1008.15 1008.20 1008.31 1008.49 1008.77 1009.14 1009.63 1010.23 1010.92 1011.69 1012.49 1013.32 1014.13 1014.91 1015.65 1016.33 1016.96 1017.55 1018.11 1018.64 1019.16 1019.66 1020.15 1020.61
1013.54 1013.46 1013.31 1013.08 1012.75 1012.33 1011.83 1011.27 1010.69 1010.12 1009.58 1009.10 1008.71 1008.40 1008.17 1008.02 1007.92 1007.85 1007.82 1007.81 1007.81 1007.85 1007.94 1008.10 1008.34 1008.69 1009.13 1009.69 1010.33 1011.04 1011.81 1012.59 1013.37 1014.13 1014.86 1015.54 1016.19 1016.79 1017.38 1017.94 1018.49 1019.04 1019.57 1020.08
1012.54 1012.46 1012.34 1012.17 1011.92 1011.59 1011.20 1010.75 1010.26 1009.77 1009.30 1008.87 1008.51 1008.21 1007.98 1007.81 1007.70 1007.61 1007.56 1007.53 1007.51 1007.53 1007.60 1007.73 1007.93 1008.23 1008.63 1009.12 1009.71 1010.36 1011.08 1011.82 1012.57 1013.31 1014.03 1014.71 1015.37 1016.01 1016.62 1017.22 1017.82 1018.40 1018.98 1019.54
1011.68 1011.61 1011.54 1011.42 1011.26 1011.03 1010.74 1010.38 1009.98 1009.56 1009.14 1008.74 1008.39 1008.08 1007.83 1007.64 1007.49 1007.37 1007.29 1007.23 1007.19 1007.19 1007.23 1007.33 1007.50 1007.75 1008.10 1008.54 1009.06 1009.66 1010.32 1011.02 1011.74 1012.47 1013.19 1013.90 1014.58 1015.25 1015.91 1016.55 1017.18 1017.81 1018.43 1019.03
Thickness
5752 5747 5741 5744 5747 5743 5740 5734 5729 5733 5739 5733 5730 5732 5737 5738 5734 5733 5734 5734 5734 5734 5736 5736 5733 5732 5730 5728 5727 5727 5725 5724 5722 5721 5720 5719 5718 5717 5716 5715 5714 5713 5714 5713
5741 5739 5747 5748 5745 5739 5735 5729 5728 5731 5734 5731 5729 5731 5739 5739 5736 5737 5737 5735 5735 5734 5734 5732 5731 5731 5729 5727 5727 5727 5725 5724 5722 5720 5721 5719 5717 5717 5715 5713 5712 5712 5712 5712
5737 5742 5746 5741 5736 5733 5732 5730 5728 5725 5727 5731 5726 5727 5734 5738 5739 5738 5738 5739 5739 5736 5734 5732 5730 5729 5728 5726 5726 5725 5724 5722 5721 5719 5719 5717 5715 5714 5713 5712 5712 5711 5711 5711
5736 5741 5738 5735 5734 5733 5726 5734 5730 5724 5720 5719 5720 5714 5731 5737 5734 5735 5736 5738 5738 5737 5736 5733 5731 5728 5728 5727 5727 5726 5724 5722 5721 5719 5718 5716 5713 5712 5712 5713 5711 5711 5710 5709
5730 5734 5732 5729 5732 5733 5729 5733 5729 5724 5720 5717 5720 5714 5730 5735 5731 5736 5739 5739 5740 5739 5737 5734 5732 5730 5729 5728 5725 5724 5722 5720 5719 5718 5716 5715 5714 5713 5713 5712 5711 5711 5710 5709
5731 5736 5736 5734 5735 5734 5729 5726 5722 5721 5718 5705 5718 5714 5720 5735 5736 5739 5742 5741 5741 5740 5738 5735 5733 5729 5727 5725 5723 5721 5720 5718 5717 5716 5716 5714 5713 5712 5711 5710 5710 5710 5709 5709
5718 5725 5731 5734 5725 5726 5726 5716 5704 5700 5700 5707 5720 5714 5724 5740 5743 5743 5742 5743 5742 5741 5738 5734 5730 5727 5725 5722 5721 5720 5718 5716 5715 5715 5715 5715 5714 5713 5712 5711 5710 5710 5709 5708
5708 5709 5723 5728 5726 5720 5721 5719 5703 5694 5698 5708 5713 5713 5732 5743 5744 5746 5746 5745 5743 5740 5739 5734 5731 5728 5725 5723 5721 5719 5718 5716 5715 5714 5715 5715 5714 5713 5713 5711 5712 5711 5710 5709
5711 5710 5723 5725 5728 5726 5716 5715 5721 5710 5706 5703 5714 5723 5735 5741 5740 5741 5742 5741 5740 5739 5737 5734 5731 5728 5726 5723 5721 5719 5718 5716 5715 5714 5713 5713 5713 5712 5711 5711 5711 5711 5710 5709
5718 5707 5712 5716 5719 5718 5722 5719 5710 5701 5691 5693 5705 5712 5721 5730 5733 5736 5737 5737 5738 5738 5736 5733 5730 5728 5726 5724 5721 5720 5718 5716 5715 5713 5712 5712 5712 5711 5710 5711 5709 5710 5710 5708
5715 5705 5702 5706 5707 5708 5707 5707 5708 5707 5704 5694 5694 5709 5732 5732 5734 5735 5736 5737 5737 5736 5735 5733 5730 5729 5727 5724 5720 5719 5717 5715 5714 5713 5712 5711 5710 5710 5709 5709 5708 5708 5709 5708
5707 5705 5697 5702 5711 5715 5712 5709 5707 5696 5696 5699 5696 5708 5735 5734 5735 5735 5736 5736 5736 5735 5734 5731 5729 5727 5725 5722 5720 5718 5717 5715 5713 5712 5711 5710 5710 5709 5709 5708 5708 5708 5708 5708
5699 5695 5686 5684 5691 5699 5702 5705 5706 5706 5701 5696 5691 5705 5731 5733 5732 5733 5733 5734 5734 5732 5731 5729 5727 5725 5724 5722 5720 5718 5717 5716 5713 5711 5710 5709 5709 5708 5708 5707 5707 5707 5706 5705
5697 5693 5689 5684 5693 5698 5696 5697 5700 5699 5694 5695 5699 5708 5721 5725 5726 5728 5730 5731 5731 5730 5728 5727 5725 5724 5724 5722 5720 5718 5716 5715 5713 5711 5710 5709 5708 5707 5707 5707 5706 5705 5705 5704
5689 5686 5690 5694 5697 5698 5696 5696 5696 5696 5701 5698 5704 5707 5716 5723 5725 5727 5728 5728 5727 5727 5726 5726 5724 5724 5723 5721 5720 5719 5716 5714 5712 5711 5709 5708 5708 5707 5706 5705 5703 5703 5703 5702
5681 5680 5683 5682 5688 5690 5690 5696 5697 5698 5701 5702 5703 5706 5721 5725 5726 5725 5726 5725 5725 5725 5725 5725 5725 5725 5724 5722 5721 5719 5716 5713 5712 5710 5709 5707 5706 5705 5703 5702 5701 5700 5700 5699
5671 5673 5671 5673 5680 5678 5679 5697 5698 5698 5703 5702 5699 5708 5718 5716 5718 5721 5723 5723 5725 5727 5726 5725 5726 5726 5727 5726 5725 5721 5718 5715 5712 5710 5709 5706 5704 5702 5701 5700 5698 5696 5696 5695
5663 5664 5665 5666 5666 5656 5693 5710 5706 5700 5702 5706 5707 5711 5714 5715 5719 5722 5724 5724 5725 5727 5726 5727 5727 5727 5728 5728 5726 5723 5720 5716 5713 5711 5708 5706 5703 5701 5699 5697 5695 5694 5694 5692
5664 5659 5656 5657 5656 5669 5688 5697 5699 5695 5697 5708 5706 5708 5712 5715 5715 5717 5723 5724 5725 5727 5728 5728 5729 5729 5728 5727 5725 5723 5719 5716 5713 5710 5708 5706 5703 5700 5698 5696 5695 5693 5691 5690
5655 5657 5652 5651 5649 5656 5683 5698 5703 5696 5690 5709 5709 5708 5709 5708 5703 5712 5721 5723 5723 5724 5725 5725 5726 5727 5726 5724 5723 5720 5718 5716 5713 5711 5709 5707 5704 5700 5698 5696 5694 5692 5689 5688
5639 5640 5643 5647 5649 5666 5688 5692 5691 5677 5689 5706 5708 5709 5708 5707 5711 5717 5719 5718 5719 5719 5720 5721 5721 5721 5721 5721 5720 5718 5717 5715 5714 5711 5708 5705 5703 5700 5697 5694 5692 5689 5687 5685
5641 5640 5641 5645 5644 5658 5681 5682 5681 5689 5702 5703 5704 5706 5707 5708 5710 5712 5712 5712 5713 5714 5715 5716 5716 5716 5717 5718 5716 5715 5715 5715 5712 5709 5705 5703 5700 5698 5695 5691 5689 5687 5684 5682
5644 5649 5651 5654 5659 5673 5679 5682 5687 5691 5694 5698 5700 5701 5703 5703 5704 5706 5706 5706 5708 5710 5711 5712 5712 5711 5712 5713 5713 5712 5713 5712 5709 5705 5702 5700 5698 5695 5693 5690 5686 5684 5682 5681
5640 5647 5648 5650 5658 5666 5671 5677 5681 5684 5688 5693 5695 5697 5698 5698 5700 5701 5701 5702 5703 5705 5706 5707 5707 5707 5707 5708 5709 5709 5710 5708 5706 5702 5700 5698 5696 5693 5691 5688 5686 5684 5682 5680
5634 5637 5641 5645 5653 5657 5663 5668 5674 5677 5682 5685 5689 5692 5693 5694 5694 5696 5697 5697 5698 5699 5701 5702 5703 5703 5703 5704 5704 5705 5706 5705 5703 5700 5698 5696 5693 5691 5687 5685 5683 5681 5680 5680
5631 5635 5636 5642 5651 5653 5658 5664 5668 5670 5673 5678 5681 5683 5687 5689 5689 5691 5692 5693 5694 5695 5696 5697 5698 5699 5700 5700 5700 5701 5701 5701 5700 5697 5695 5692 5690 5687 5684 5680 5676 5672 5673 5672